Regional Weather Roundup
Issued by NWS

Home | Current Version | Previous Version | Text Only | Print | Product List | Glossary On
Versions: 1 2 3 4 5 6 7 8 9 10 11 12 13 14 15 16 17 18 19 20 21 22 23 24 25 26 27 28 29 30 31 32 33 34 35 36 37 38 39 40 41 42 43 44 45 46 47 48 49 50
000
ASUS45 KPSR 032310
RWRAZ

ARIZONA REGIONAL HOURLY WEATHER ROUNDUP
NATIONAL WEATHER SERVICE PHOENIX AZ
400 PM MST TUE MAR 03 2015

NOTE: FAIR INDICATES FEW OR NO CLOUDS BELOW 12,000 FEET WITH NO
SIGNIFICANT WEATHER AND/OR OBSTRUCTIONS TO VISIBILITY.

AZZ001>003-036-040000-
NORTHWEST ARIZONA

CITY           SKY/WX    TMP DP  RH WIND       PRES   REMARKS
BULLHEAD CITY  MOSUNNY   63  37  39 NW13G20   29.88S
KINGMAN        SUNNY     50  31  48 SW7       29.86F
$$

AZZ004>008-015-016-018-040000-
NORTH CENTRAL ARIZONA

CITY           SKY/WX    TMP DP  RH WIND       PRES   REMARKS
GRAND CANYON   MOSUNNY   33  26  75 SW10      29.85S WCI  25
PRESCOTT       PTSUNNY   47  25  42 W12       29.86S
FLAGSTAFF      NOT AVBL
PAYSON         CLOUDY    45  34  65 VRB6      29.88F
PAGE           PTSUNNY   48  26  42 W9        29.80S
$$

AZZ009>014-017-040000-
NORTHEAST ARIZONA

CITY           SKY/WX    TMP DP  RH WIND       PRES   REMARKS
WINSLOW        CLOUDY    48  26  42 W17       29.84S
SAINT JOHNS    PTSUNNY   49  22  34 W20G26    29.81F
WINDOW ROCK    PTSUNNY   40  24  53 W16G24    29.82S WCI  31
SHOW LOW       PTSUNNY   39  23  52 S16       29.87S WCI  30
$$

AZZ023-040000-
GREATER PHOENIX AREA

CITY           SKY/WX    TMP DP  RH WIND       PRES   REMARKS
PHOENIX        PTSUNNY   59  45  59 SW9       29.83F
BUCKEYE        MOSUNNY   63  37  39 CALM      29.85F
GLENDALE       PTSUNNY   64  41  42 SE13      29.85F
LUKE AFB       MOSUNNY   64  43  46 N6        29.83F
DEER VALLEY    MOSUNNY   61  37  41 SW9       29.83F
SCOTTSDALE     CLOUDY    62  37  39 S6        29.85S
MESA-FALCON    PTSUNNY   59  36  41 SW6       29.84F
CHANDLER       PTSUNNY   61  43  51 SW13      29.85F
$$

AZZ027-028-040000-
SOUTHWEST MARICOPA COUNTY AND PINAL COUNTY

CITY           SKY/WX    TMP DP  RH WIND       PRES   REMARKS
CASA GRANDE    CLOUDY    61  41  48 W6        29.86S
GILA BEND      MOSUNNY   63  43  48 N2        29.86R
$$

AZZ503-504-507>509-040000-
SOUTHEAST ARIZONA

CITY           SKY/WX    TMP DP  RH WIND       PRES   REMARKS
TUCSON         MOSUNNY   62  36  37 N8G16     29.85F
DAVIS-MONTHAN  MOSUNNY   60  35  38 NW14      29.82F
RYAN FIELD       N/A     61  37  41 NW8       29.85F
NOGALES        MOSUNNY   61  28  28 SW8G18    29.83F
SIERRA VISTA   MOSUNNY   61  27  27 W17       29.83F
DOUGLAS        SUNNY     63  27  25 SW17G28   29.82S
SAFFORD        SUNNY     62  33  33 NW9       29.80F
$$

AZZ020-021-025-026-031-040000-
SOUTHWEST ARIZONA

CITY           SKY/WX    TMP DP  RH WIND       PRES   REMARKS
YUMA           PTSUNNY   66  37  34 W8        29.86F
$$

CAZ031-033-041-043-047-048-061-040000-
SOUTHERN CALIFORNIA

CITY           SKY/WX    TMP DP  RH WIND       PRES   REMARKS
DOWNTOWN L.A.  SUNNY     64  45  49 VRB6      29.89F
L.A. AIRPORT   MOSUNNY   60  47  61 W17       29.91S
SAN DIEGO      MOSUNNY   63  46  54 NW8       29.90F
BURBANK        PTSUNNY   64  42  44 S12       29.87F
ONTARIO        MOSUNNY   63  35  35 SW6       29.87F
RIVERSIDE      MOSUNNY   65  30  27 VRB5      29.87F
PALM SPRINGS   PTSUNNY   68  33  27 VRB3      29.86F
EL CENTRO NAS  MOSUNNY   66  36  32 NW8       29.86F
IMPERIAL       SUNNY     65  36  34 NW6       29.86F
BLYTHE         SUNNY     65  42  43 N8        29.86F
$$

NVZ020-UTZ003-040000-
SOUTHERN NEVADA-UTAH

CITY           SKY/WX    TMP DP  RH WIND       PRES   REMARKS
LAS VEGAS      LGT RAIN  55  35  47 W12G21    29.82F
SALT LAKE CITY PTSUNNY   37  25  61 N10       29.91R WCI  30
$$

NMZ009-TXZ055-040000-
NEW MEXICO-WEST TEXAS

CITY           SKY/WX    TMP DP  RH WIND       PRES   REMARKS
ALBUQUERQUE    MOSUNNY   54  29  38 VRB6      29.76F
EL PASO        PTSUNNY   60  43  53 W6        29.83F
$$


........................KEY........................
SKY/WX - SKY CONDITION/WEATHER
TMP    - TEMPERATURE IN FAHRENHEIT
DP     - DEW POINT IN FAHRENHEIT
RH     - RELATIVE HUMIDITY IN PERCENT
WIND   - DIRECTION AND SPEED IN MILES PER HOUR (MPH)
VRB    - VARIABLE WIND DIRECTION
PRES   - MEAN SEA LEVEL PRESSURE IN INCHES OF MERCURY
         F - FALLING PRESSURE   R - RISING PRESSURE
         S - STEADY PRESSURE
VSB    - VISIBILITY IN MILES
HX     - HEAT INDEX IN FAHRENHEIT
WCI    - WIND CHILL INDEX IN FAHRENHEIT
TC     - TEMPERATURE IN CELSIUS WHICH IS ALSO KNOWN AS
         TEMPERATURE IN CENTIGRADE
AFB    - AIR FORCE BASE
         LUKE AFB IS LUKE AIR FORCE BASE
         DAVIS-MONTHAN IS DAVIS-MONTHAN AIR FORCE BASE
NAS    - NAVAL AIR STATION
         EL CENTRO NAS IS EL CENTRO NAVAL AIR STATION
N/A    - NOT AVAILABLE


USA.gov is the U.S. government's official web portal to all federal, state and local government web resources and services.